Sand Springs, OK

11:57 PM CDT on August 25, 2016 (GMT -0500)
Sand Springs William R. Pogue

Weather History for KOWP - August, 2014

Change the Weather History Date:

Friday, August 22, 2014

  Actual Average (KTUL) Record (KTUL)
Temperature  
Mean Temperature 92 °F 82 °F  
Max Temperature 103 °F 93 °F 106 °F (1936)
Min Temperature 80 °F 71 °F 50 °F (1920)
Cooling Degree Days 26 17  
Month to date cooling degree days 395  
Year to date cooling degree days 1563  
Since 1 June cooling degree days 1329  
Growing Degree Days 42 (Base 50)    
Moisture  
Dew Point 67 °F    
Average Humidity 48    
Maximum Humidity 64    
Minimum Humidity 26    
Precipitation  
Precipitation 0.00 in 0.09 in 1.14 in (1971)
Month to date precipitation 1.97  
Year to date precipitation 26.55  
Sea Level Pressure  
Sea Level Pressure 29.95 in    
Wind  
Wind Speed 8 mph (South)    
Max Wind Speed 13 mph    
Max Gust Speed 21 mph    
Visibility 10 miles    
Events      
T = Trace of Precipitation, MM = Missing Value Source: NWS Daily Summary

Daily Weather History Graph

Daily Weather History Graph

Search for Another Location

Airport or City:

Trip Planner

Search our weather history database for the weather conditions in past years. The results will help you decide how hot, cold, wet, or windy it might be!

Date:

Astronomy

Aug. 22, 2014 Rise Set
Actual Time 6:48 AM CDT 8:05 PM CDT
Civil Twilight 6:21 AM CDT 8:32 PM CDT
Nautical Twilight 5:49 AM CDT 9:04 PM CDT
Astronomical Twilight 5:16 AM CDT 9:37 PM CDT
Moon 4:14 AM CDT (8/22) 6:13 PM CDT (8/22)
Length of Visible Light 14h 11m
Length of Day
13h 17m
Waning Crescent, 7% of the Moon is Illuminated
Aug 22
Waning Crescent
Aug 25
New
Sep 2
First Quarter
Sep 8
Full
Sep 15
Last Quarter

Hourly Weather History & Observations

Time (CDT) Temp. Heat Index Dew Point Humidity Pressure Visibility Wind Dir Wind Speed Gust Speed Precip Events Conditions
12:15 AM 85.6 °F 90.4 °F 70.2 °F 60% 29.96 in 10.0 mi South 8.1 mph - N/A   Clear
12:35 AM 85.5 °F 89.8 °F 69.6 °F 59% 29.96 in 10.0 mi South 8.1 mph - N/A   Clear
12:55 AM 85.5 °F 89.1 °F 68.9 °F 57% 29.96 in 10.0 mi South 6.9 mph - N/A   Clear
1:35 AM 85.1 °F 88.2 °F 68.0 °F 56% 29.96 in 10.0 mi South 8.1 mph - N/A   Clear
1:55 AM 84.9 °F 87.9 °F 67.6 °F 56% 29.96 in 10.0 mi South 4.6 mph - N/A   Clear
2:15 AM 83.8 °F 86.7 °F 67.8 °F 58% 29.96 in 10.0 mi SSE 5.8 mph - N/A   Clear
2:35 AM 83.3 °F 86.4 °F 68.0 °F 60% 29.96 in 10.0 mi SSE 5.8 mph - N/A   Clear
2:55 AM 82.8 °F 85.5 °F 67.5 °F 60% 29.96 in 10.0 mi South 4.6 mph - N/A   Clear
3:15 AM 82.9 °F 85.6 °F 67.1 °F 59% 29.95 in 10.0 mi South 6.9 mph - N/A   Clear
3:35 AM 82.4 °F 85.0 °F 67.1 °F 60% 29.96 in 10.0 mi South 5.8 mph - N/A   Clear
3:55 AM 81.9 °F 84.4 °F 67.1 °F 61% 29.95 in 10.0 mi SSE 5.8 mph - N/A   Clear
4:15 AM 81.5 °F 83.9 °F 67.1 °F 61% 29.95 in 10.0 mi SSE 4.6 mph - N/A   Clear
4:35 AM 80.8 °F 83.2 °F 67.1 °F 63% 29.95 in 10.0 mi SSE 5.8 mph - N/A   Clear
4:55 AM 81.3 °F 83.6 °F 66.7 °F 61% 29.95 in 10.0 mi South 8.1 mph - N/A   Clear
5:15 AM 81.5 °F 83.9 °F 66.7 °F 61% 29.96 in 10.0 mi South 6.9 mph - N/A   Clear
5:35 AM 81.7 °F 84.0 °F 66.7 °F 60% 29.96 in 10.0 mi South 8.1 mph - N/A   Clear
5:55 AM 81.3 °F 83.6 °F 66.9 °F 61% 29.97 in 10.0 mi South 5.8 mph - N/A   Clear
6:15 AM 81.5 °F 83.9 °F 67.1 °F 61% 29.97 in 10.0 mi South 6.9 mph - N/A   Clear
6:35 AM 81.1 °F 83.5 °F 67.1 °F 62% 29.97 in 10.0 mi South 6.9 mph - N/A   Clear
6:55 AM 81.0 °F 83.4 °F 67.1 °F 63% 29.98 in 10.0 mi South 6.9 mph - N/A   Clear
7:15 AM 80.6 °F 83.1 °F 67.3 °F 64% 29.98 in 10.0 mi South 6.9 mph - N/A   Clear
7:35 AM 81.1 °F 83.7 °F 67.3 °F 63% 29.98 in 10.0 mi South 5.8 mph - N/A   Clear
7:55 AM 81.5 °F 84.2 °F 67.6 °F 63% 29.98 in 10.0 mi South 5.8 mph - N/A   Clear
8:15 AM 82.2 °F 85.1 °F 68.0 °F 62% 29.99 in 10.0 mi SSW 6.9 mph - N/A   Clear
8:35 AM 83.1 °F 86.3 °F 68.2 °F 61% 29.99 in 10.0 mi SSW 9.2 mph - N/A   Clear
8:55 AM 84.2 °F 87.6 °F 68.4 °F 59% 29.99 in 10.0 mi South 9.2 mph 20.7 mph N/A   Clear
9:15 AM 85.1 °F 88.8 °F 68.9 °F 58% 29.99 in 10.0 mi SSW 9.2 mph 17.3 mph N/A   Clear
9:35 AM 86.9 °F 91.3 °F 69.4 °F 56% 29.99 in 10.0 mi SSW 8.1 mph - N/A   Clear
9:55 AM 87.8 °F 92.6 °F 69.6 °F 55% 29.99 in 10.0 mi SSW 11.5 mph 18.4 mph N/A   Clear
10:15 AM 89.4 °F 94.8 °F 70.0 °F 53% 29.99 in 10.0 mi SW 9.2 mph 16.1 mph N/A   Clear
10:35 AM 91.0 °F 96.6 °F 70.2 °F 50% 29.99 in 10.0 mi SSW 6.9 mph 16.1 mph N/A   Clear
10:55 AM 91.9 °F 96.9 °F 69.3 °F 47% 29.99 in 10.0 mi SW 9.2 mph 16.1 mph N/A   Clear
11:15 AM 92.8 °F 98.1 °F 69.3 °F 46% 29.99 in 10.0 mi SW 8.1 mph - N/A   Clear
11:35 AM 94.1 °F 99.5 °F 68.9 °F 44% 29.99 in 10.0 mi SSW 9.2 mph 16.1 mph N/A   Clear
11:55 AM 94.8 °F 99.8 °F 68.7 °F 42% 29.99 in 10.0 mi SSW 6.9 mph 17.3 mph N/A   Clear
12:15 PM 95.9 °F 101.3 °F 68.7 °F 41% 29.98 in 10.0 mi SSW 9.2 mph - N/A   Clear
12:35 PM 96.4 °F 101.7 °F 68.2 °F 40% 29.98 in 10.0 mi South 9.2 mph - N/A   Clear
12:55 PM 98.1 °F 103.7 °F 68.2 °F 38% 29.97 in 10.0 mi South 9.2 mph 16.1 mph N/A   Clear
1:15 PM 98.1 °F 102.4 °F 66.7 °F 36% 29.96 in 10.0 mi SW 9.2 mph 19.6 mph N/A   Clear
1:35 PM 99.0 °F 102.9 °F 66.0 °F 34% 29.96 in 10.0 mi SW 10.4 mph 20.7 mph N/A   Clear
1:55 PM 98.8 °F 102.5 °F 66.2 °F 34% 29.96 in 10.0 mi SSW 8.1 mph 17.3 mph N/A   Clear
2:15 PM 99.5 °F 103.2 °F 66.0 °F 33% 29.95 in 10.0 mi South 9.2 mph 18.4 mph N/A   Clear
2:35 PM 99.9 °F 103.9 °F 65.7 °F 33% 29.95 in 10.0 mi South 12.7 mph 17.3 mph N/A   Clear
2:55 PM 101.3 °F 104.6 °F 64.8 °F 30% 29.94 in 10.0 mi WSW 8.1 mph - N/A   Clear
3:15 PM 101.5 °F 104.3 °F 63.9 °F 29% 29.94 in 10.0 mi SSW 9.2 mph - N/A   Clear
3:35 PM 101.1 °F 104.3 °F 64.0 °F 30% 29.93 in 10.0 mi SSW 5.8 mph 18.4 mph N/A   Clear
3:55 PM 102.2 °F 104.9 °F 63.3 °F 28% 29.93 in 10.0 mi SSW 10.4 mph - N/A   Clear
4:15 PM 102.4 °F 105.9 °F 64.0 °F 29% 29.92 in 10.0 mi SW 10.4 mph 17.3 mph N/A   Scattered Clouds
4:35 PM 102.6 °F 104.8 °F 63.1 °F 27% 29.92 in 10.0 mi SSW 9.2 mph - N/A   Scattered Clouds
4:55 PM 103.1 °F 105.1 °F 62.4 °F 26% 29.91 in 10.0 mi SSW 9.2 mph 17.3 mph N/A   Clear
5:15 PM 101.3 °F 104.0 °F 63.5 °F 29% 29.90 in 10.0 mi SSW 6.9 mph 19.6 mph N/A   Clear
5:35 PM 101.3 °F 104.6 °F 64.6 °F 30% 29.91 in 10.0 mi SSW 11.5 mph 17.3 mph N/A   Scattered Clouds
5:55 PM 100.4 °F 104.9 °F 66.6 °F 33% 29.91 in 10.0 mi South 8.1 mph - N/A   Scattered Clouds
6:15 PM 99.9 °F 103.9 °F 65.8 °F 33% 29.91 in 10.0 mi South 11.5 mph 18.4 mph N/A   Scattered Clouds
6:35 PM 98.6 °F 102.8 °F 66.4 °F 35% 29.91 in 10.0 mi South 10.4 mph 17.3 mph N/A   Clear
6:55 PM 97.7 °F 101.2 °F 65.7 °F 35% 29.91 in 10.0 mi South 11.5 mph 19.6 mph N/A   Clear
7:15 PM 96.8 °F 100.1 °F 66.0 °F 36% 29.91 in 10.0 mi South 11.5 mph 16.1 mph N/A   Clear
7:35 PM 95.5 °F 99.4 °F 66.7 °F 39% 29.91 in 10.0 mi South 8.1 mph - N/A   Clear
7:55 PM 94.5 °F 97.5 °F 66.0 °F 39% 29.91 in 10.0 mi South 6.9 mph - N/A   Clear
8:15 PM 93.2 °F 95.8 °F 65.8 °F 40% 29.91 in 10.0 mi South 9.2 mph - N/A   Clear
8:35 PM 92.3 °F 94.7 °F 65.7 °F 41% 29.91 in 10.0 mi South 10.4 mph 17.3 mph N/A   Clear
8:55 PM 91.4 °F 93.6 °F 65.3 °F 42% 29.92 in 10.0 mi South 8.1 mph - N/A   Clear
9:15 PM 90.1 °F 92.3 °F 65.5 °F 44% 29.93 in 10.0 mi South 5.8 mph - N/A   Clear
9:55 PM 88.9 °F 91.8 °F 66.7 °F 48% 29.93 in 10.0 mi South 9.2 mph - N/A   Clear
10:15 PM 88.2 °F 91.3 °F 67.1 °F 50% 29.93 in 10.0 mi South 5.8 mph - N/A   Clear
10:35 PM 87.8 °F 90.4 °F 66.7 °F 49% 29.94 in 10.0 mi SSE 8.1 mph - N/A   Clear
10:55 PM 87.3 °F 89.8 °F 66.7 °F 50% 29.94 in 10.0 mi South 5.8 mph - N/A   Clear
11:15 PM 86.2 °F 88.8 °F 66.7 °F 52% 29.94 in 10.0 mi SSE 5.8 mph - N/A   Clear
11:35 PM 86.0 °F 88.5 °F 66.4 °F 52% 29.94 in 10.0 mi South 8.1 mph - N/A   Clear
11:55 PM 85.6 °F 88.2 °F 66.9 °F 53% 29.94 in 10.0 mi SSE 6.9 mph - N/A   Clear